200 C

Oak Ridge - Morning · 26 October 2024 · 25 finishers

200 C results for Oak Ridge - Morning, by class position.
Cls Ovr No. Rider Laps Behind Int Pace Bike
1 1 #10L BURTON, AUSTIN 3 0:00 26:37 YAM
2 2 #61L MILLER, JACOB 3 0:38 0:38 26:49 YAM
3 6 #26L TESTER, JAMISON 3 2:13 0:22 27:21 YAM
4 8 #67L BONANNO, ADIN 3 2:40 0:01 27:30 KTM
5 9 #50L CACERES, AIDEN 3 2:41 0:01 27:30 KTM
6 10 #44L GEARHART, CADENCE 3 3:40 0:59 27:50 GAS
7 11 #25L HERTZLER, NOAH 3 3:44 0:04 27:51 KTM
8 12 #21L WIGGINS, MADDIX 3 3:49 0:05 27:53 GAS
9 22 #33LZ no pts CRAMP, LANDON 3 4:58 0:12 28:16 KTM
10 23 #39L CHRIMES, CHASE 3 5:07 0:09 28:19 HUS
11 32 #42L COLLINS, JAXON 3 6:53 0:04 28:54 KTM
12 54 #51L RICE, DANE 3 9:35 0:02 29:48 YAM
13 55 #24L OLEARY, NOLAN 3 9:37 0:02 29:49 KTM
14 59 #16L CLINEDINST, LAIRD 3 9:55 0:12 29:55 YAM
15 64 #5L BAKKEN, DASH 3 10:19 0:00 30:03 KTM
16 88 #27L SENTERS, TOBIAH 3 12:50 0:03 30:53 KTM
17 99 #55L RAFFERTY, BRAEDON 3 14:07 0:18 31:19 KTM
18 104 #35LZ no pts TIERNEY, LAYNE 3 14:53 0:17 31:34 KTM
19 121 #23L JOHNSON, BRADY 3 16:31 0:04 32:07 KTM
20 135 #69L FISHER, CHAZ 3 17:40 0:11 32:30 KTM
21 190 #57L REYNOLDS, LUCAS 3 29:00 0:06 36:17 HUS
22 198 #18L MOUNTS, RILEY 2 1 lap 0:00 28:02 KAW
23 214 #37L HUTCHISON, NICK 2 1 lap 0:16 36:55 HUS
24 267 #15L WESTON, BODIE 1 2 laps 0:00 27:11 KTM
25 273 #77L WALKER, KADYN 1 2 laps 0:56 35:15 HUS